Location: Eaton Estates
(41.3089°N, 82.0057°W)
Time: 14:09:03
(UTC+00:00)

USA 308 - Pass Details

Date: 30 October 2021
Orbit: 565 x 570 km, 54.0° (Epoch: 04 December)

Event Time Altitude Azimuth Distance (km) Brightness Sun altitude
Exits shadow 11:22:03 - 311° (NW) 2,218 5.4 -7.2°
Reaches altitude 10° 11:23:23 10° 324° (NW) 1,880 5.1 -7.0°
Maximum altitude 11:25:50 15° 359° (N) 1,594 5.0 -6.5°
Drops below altitude 10° 11:28:17 10° 34° (NE) 1,880 5.8 -6.1°
Sets 11:31:27 0° 59° (ENE) 2,777 7.2 -5.5°
